User: anonymous
Location: Caltech
(34.1382°N, 118.1253°W)
Time: 23:18:35
(UTC-07:00)
Language:

Iridium 75 - Orbit

View from above orbital plane
View from above orbital plane
View from above satellite
View from above satellite

Ground track
Ground track

The orbit data is extracted from the following two-line orbital elements,

1 25346U 98032E   14265.49455360  .00000089  00000-0  24593-4 0  9912
2 25346 086.3920 281.5252 0002331 106.1569 048.0954 14.34216711856528
Epoch (UTC): 22 September 2014 11:52:09
Eccentricity: 0.0002331
inclination: 86.3920°
perigee height: 776 km
apogee height: 779 km
right ascension of ascending node: 281.5252°
argument of perigee: 106.1569°
revolutions per day: 14.34216711
mean anomaly at epoch: 48.0954°
orbit number at epoch: 85652

The dashed part of the orbit path shows where the satellite is in the earth's shadow,  

DLR